EW7337 Weather Reports


Display with metric or nautical units.
time (UTC)temp
F
wind
direction
speed
MPH
gust
MPH
rain 1hr
in
rain 24hr
in
rain mn
in
humidity
%
barometer
mb
20260504120306 66 273 2.0 4.0 0.00 0.11 0.11 81 1017.0
20260504110138 67 342 3.0 8.0 0.00 0.11 0.11 80 1016.6
20260504100308 67 32 4.0 6.0 0.00 0.11 0.11 81 1015.9
20260504081750 67 49 3.0 7.0 0.00 0.11 0.11 84 1016.1
20260504081252 67 17 2.0 6.0 0.00 0.11 0.11 84 1015.9
20260504080751 67 38 3.0 5.0 0.00 0.11 0.11 84 1015.9
20260504080548 67 50 1.0 3.0 0.00 0.11 0.11 84 1015.9
20260504080422 67 49 2.0 4.0 0.00 0.11 0.11 84 1016.0
20260504070241 68 313 2.0 4.0 0.00 0.11 0.11 81 1015.5
20260504070115 69 28 2.0 4.0 0.00 0.11 0.11 81 1015.5
20260504060229 71 57 4.0 7.0 0.00 0.11 0.11 75 1015.6
20260504060112 72 24 3.0 7.0 0.00 0.11 0.11 76 1015.4
20260504050719 70 34 2.0 6.0 0.00 0.11 0.11 80 1015.7
20260504050213 70 327 1.0 9.0 0.00 0.11 0.11 81 1015.7
20260504050106 69 336 4.0 10.0 0.00 0.11 0.11 81 1015.7
20260504045208 69 0 3.0 10.0 0.00 0.11 0.11 83 1015.7
20260504044712 68 10 3.0 5.0 0.00 0.11 0.11 84 1015.7
20260504044210 68 329 1.0 6.0 0.00 0.11 0.11 85 1015.7
20260504043709 68 9 1.0 6.0 0.00 0.11 0.11 85 1015.7
20260504043640 68 333 2.0 8.0 0.00 0.11 0.11 85 1015.8
20260504042704 68 22 1.0 8.0 0.02 0.11 0.11 86 1015.7
20260504042206 68 48 2.0 6.0 0.02 0.11 0.11 86 1015.7
20260504041705 68 42 2.0 6.0 0.02 0.11 0.11 86 1015.9
20260504041211 67 39 4.0 7.0 0.02 0.11 0.11 87 1016.0
20260504040701 67 46 4.0 7.0 0.02 0.11 0.11 88 1016.0
20260504040159 67 37 3.0 6.0 0.02 0.11 0.11 89 1016.2
20260504035655 67 29 2.0 6.0 0.02 0.09 0.11 89 1016.2
20260504035153 67 53 2.0 5.0 0.02 0.09 0.11 90 1016.2
20260504034646 66 23 2.0 5.0 0.02 0.09 0.11 90 1016.2
20260504034139 66 19 2.0 5.0 0.02 0.09 0.11 89 1016.4
20260504033638 66 61 1.0 5.0 0.02 0.09 0.11 89 1016.2
20260504033143 66 82 3.0 5.0 0.03 0.09 0.10 89 1016.2
20260504033032 66 39 2.0 7.0 0.02 0.09 0.09 89 1016.6
20260504032136 66 44 4.0 7.0 0.02 0.09 0.09 88 1016.5
20260504031633 66 42 2.0 5.0 0.03 0.09 0.09 88 1016.6
20260504031136 66 27 1.0 3.0 0.04 0.09 0.09 88 1016.6
20260504030137 66 37 0.0 3.0 0.06 0.09 0.09 88 1016.9
20260504025633 66 34 0.0 3.0 0.06 0.03 0.09 88 1017.0
20260504025133 65 11 1.0 4.0 0.06 0.03 0.09 88 1016.9
20260504024633 66 12 1.0 5.0 0.06 0.03 0.09 87 1017.3
20260504024137 66 338 2.0 5.0 0.06 0.03 0.09 87 1017.5
20260504023632 66 350 2.0 5.0 0.06 0.03 0.09 87 1017.5
20260504023151 66 293 2.0 12.0 0.06 0.03 0.08 87 1017.5
20260504022632 66 315 3.0 12.0 0.06 0.03 0.07 87 1017.7
20260504022137 66 311 2.0 6.0 0.06 0.03 0.06 86 1017.8
20260504021644 66 278 2.0 6.0 0.05 0.03 0.05 86 1018.1
20260504021610 67 302 2.0 6.0 0.04 0.03 0.04 86 1018.1
20260504020644 67 298 2.0 4.0 0.03 0.03 0.03 86 1018.2
20260504020007 67 344 2.0 4.0 0.03 0.00 0.03 86 1018.3
20260504015140 67 321 0.0 2.0 0.03 0.00 0.03 86 1018.3
20260504014633 67 323 2.0 4.0 0.03 0.00 0.02 85 1018.4
20260504014139 67 283 2.0 4.0 0.02 0.00 0.02 85 1018.5
20260504013937 68 280 0.0 3.0 0.02 0.00 0.02 84 1018.6
20260504013811 68 303 2.0 4.0 0.02 0.00 0.02 85 1018.5
20260504012624 68 279 1.0 4.0 0.02 0.00 0.02 84 1018.6
20260504012513 68 280 2.0 4.0 0.01 0.00 0.01 84 1018.9
20260504011619 68 277 1.0 4.0 0.01 0.00 0.01 83 1018.8
20260504011122 68 290 2.0 4.0 0.01 0.00 0.01 83 1019.0
20260504010615 68 327 2.0 3.0 0.00 0.00 0.00 83 1019.0
20260504010116 68 323 1.0 2.0 0.00 0.00 0.00 82 1018.8
20260504010023 68 334 1.0 2.0 0.00 0.00 0.00 83 1018.8
20260504005110 68 343 0.0 2.0 0.00 0.00 0.00 84 1018.8
20260504004608 68 343 0.0 3.0 0.00 0.00 0.00 84 1018.8
20260504004111 68 57 1.0 3.0 0.00 0.00 0.00 85 1018.7
20260504003946 68 46 0.0 3.0 0.00 0.00 0.00 86 1018.7
20260504003112 68 71 0.0 2.0 0.00 0.00 0.00 86 1018.6
20260504002604 67 122 0.0 2.0 0.00 0.00 0.00 87 1018.6
20260504002107 67 122 0.0 1.0 0.00 0.00 0.00 88 1018.5
20260504001605 67 122 1.0 1.0 0.00 0.00 0.00 89 1018.6
20260504001107 66 122 0.0 2.0 0.00 0.00 0.00 89 1018.6
20260504000608 66 122 0.0 2.0 0.00 0.00 0.00 90 1018.5
20260504000107 66 168 0.0 1.0 0.00 0.00 0.00 90 1018.5
20260503235609 65 168 0.0 2.0 0.00 0.00 0.00 90 1018.6
20260503235106 65 206 0.0 3.0 0.00 0.00 0.00 90 1018.6
20260503234610 65 217 1.0 4.0 0.00 0.00 0.00 90 1018.8
20260503234112 65 204 1.0 4.0 0.00 0.00 0.00 90 1018.8
20260503233610 65 219 1.0 5.0 0.00 0.00 0.00 91 1018.9
20260503233110 65 237 3.0 5.0 0.00 0.00 0.00 91 1019.1
20260503232610 65 254 2.0 6.0 0.00 0.00 0.00 91 1019.1
20260503232112 65 248 2.0 6.0 0.00 0.00 0.00 91 1019.2
20260503231609 65 271 2.0 4.0 0.00 0.00 0.00 92 1019.1
20260503231126 65 242 1.0 4.0 0.00 0.00 0.00 92 1019.0
20260503231020 65 275 1.0 4.0 0.00 0.00 0.00 92 1018.9
20260503230115 65 268 1.0 4.0 0.00 0.00 0.00 92 1018.9
20260503225609 65 260 1.0 2.0 0.00 0.00 0.00 92 1018.9
20260503225111 65 267 0.0 0.0 0.00 0.00 0.00 92 1018.7
20260503224608 64 267 0.0 0.0 0.00 0.00 0.00 92 1018.6
20260503224111 64 267 0.0 0.0 0.00 0.00 0.00 92 1018.5
20260503223612 64 267 0.0 0.0 0.00 0.00 0.00 92 1018.4
20260503223109 64 267 0.0 0.0 0.00 0.00 0.00 92 1018.3
20260503222612 64 267 0.0 0.0 0.00 0.00 0.00 92 1018.2
20260503222115 64 267 0.0 3.0 0.00 0.00 0.00 93 1018.2
20260503221950 64 267 0.0 3.0 0.00 0.00 0.00 93 1018.2
20260503221113 64 268 1.0 2.0 0.00 0.00 0.00 93 1018.1
20260503220609 63 111 0.0 0.0 0.00 0.00 0.00 93 1018.0
20260503220113 63 111 0.0 1.0 0.00 0.00 0.00 93 1018.1
20260503215607 63 111 0.0 2.0 0.00 0.00 0.00 93 1018.0
20260503215113 63 111 1.0 2.0 0.00 0.00 0.00 93 1017.9
20260503214608 63 148 0.0 2.0 0.00 0.00 0.00 93 1017.9
20260503214453 63 242 0.0 4.0 0.00 0.00 0.00 93 1017.9
20260503213947 62 268 0.0 4.0 0.00 0.00 0.00 93 1018.0
20260503213109 62 288 1.0 3.0 0.00 0.00 0.00 93 1018.1
20260503212613 62 230 0.0 1.0 0.00 0.00 0.00 93 1017.8
20260503212442 62 230 0.0 1.0 0.00 0.00 0.00 93 1017.7
20260503211605 62 230 0.0 0.0 0.00 0.00 0.00 93 1017.7
20260503211110 62 230 0.0 1.0 0.00 0.00 0.00 92 1017.7
20260503210605 62 230 0.0 1.0 0.00 0.00 0.00 92 1017.7
20260503210111 61 230 0.0 1.0 0.00 0.00 0.00 92 1017.6
20260503205606 61 230 0.0 0.0 0.00 0.00 0.00 92 1017.5
20260503205106 61 230 0.0 2.0 0.00 0.00 0.00 92 1017.5
20260503204608 61 230 0.0 3.0 0.00 0.00 0.00 92 1017.6
20260503204109 61 221 0.0 3.0 0.00 0.00 0.00 92 1017.6
20260503203608 61 275 0.0 1.0 0.00 0.00 0.00 92 1017.6
20260503203451 61 311 0.0 2.0 0.00 0.00 0.00 92 1017.5
20260503202616 61 311 0.0 2.0 0.00 0.00 0.00 92 1017.4
20260503202107 61 349 0.0 0.0 0.00 0.00 0.00 92 1017.3
20260503201605 61 349 0.0 0.0 0.00 0.00 0.00 92 1017.1
20260503201108 61 349 0.0 0.0 0.00 0.00 0.00 92 1017.2
20260503200604 61 349 0.0 0.0 0.00 0.00 0.00 92 1017.1
20260503200113 61 349 0.0 0.0 0.00 0.00 0.00 92 1017.0
20260503195609 61 349 0.0 1.0 0.00 0.00 0.00 92 1017.0
20260503195106 61 349 0.0 1.0 0.00 0.00 0.00 92 1016.9
20260503194608 61 349 0.0 0.0 0.00 0.00 0.00 92 1016.8
20260503194151 61 349 0.0 0.0 0.00 0.00 0.00 92 1016.8
20260503193734 61 349 0.0 0.0 0.00 0.00 0.00 92 1016.8
20260503192637 61 349 0.0 1.0 0.00 0.00 0.00 92 1016.8
20260503192110 61 349 0.0 1.0 0.00 0.00 0.00 92 1016.7
20260503191607 61 349 1.0 1.0 0.00 0.00 0.00 91 1016.8
20260503191114 61 349 0.0 0.0 0.00 0.00 0.00 91 1016.8
20260503190609 61 349 0.0 0.0 0.00 0.00 0.00 91 1016.8
20260503190115 61 349 0.0 0.0 0.00 0.00 0.00 91 1016.8
20260503185612 61 349 0.0 0.0 0.00 0.00 0.00 91 1016.9
20260503185110 61 349 0.0 0.0 0.00 0.00 0.00 91 1016.9
20260503184610 61 349 0.0 1.0 0.00 0.00 0.00 91 1016.9
20260503184109 61 349 0.0 1.0 0.00 0.00 0.00 91 1016.9
20260503183614 61 349 0.0 1.0 0.00 0.00 0.00 91 1016.8
20260503183117 61 349 0.0 1.0 0.00 0.00 0.00 90 1016.9
20260503182612 61 349 1.0 1.0 0.00 0.00 0.00 90 1016.8
20260503182112 61 302 0.0 0.0 0.00 0.00 0.00 90 1016.9
20260503181608 61 302 0.0 0.0 0.00 0.00 0.00 90 1016.7
20260503181109 61 302 0.0 0.0 0.00 0.00 0.00 90 1016.8
20260503180609 61 302 0.0 0.0 0.00 0.00 0.00 90 1016.8
20260503180443 61 302 0.0 0.0 0.00 0.00 0.00 90 1016.8
20260503175605 61 302 0.0 0.0 0.00 0.00 0.00 90 1016.9
20260503175107 61 302 0.0 0.0 0.00 0.00 0.00 90 1017.0
20260503174604 61 302 0.0 0.0 0.00 0.00 0.00 90 1016.9
20260503174107 61 302 0.0 0.0 0.00 0.00 0.00 90 1017.0
20260503173605 61 302 0.0 0.0 0.00 0.00 0.00 90 1017.0
20260503173109 61 302 0.0 0.0 0.00 0.00 0.00 90 1016.9
20260503172609 61 302 0.0 0.0 0.00 0.00 0.00 89 1017.1
20260503172105 61 302 0.0 0.0 0.00 0.00 0.00 89 1017.2
20260503171610 61 302 0.0 0.0 0.00 0.00 0.00 89 1017.3
20260503171112 62 302 0.0 0.0 0.00 0.00 0.00 89 1017.2
20260503170608 62 302 0.0 0.0 0.00 0.00 0.00 89 1017.3
20260503170115 62 302 0.0 0.0 0.00 0.00 0.00 89 1017.2
20260503160112 63 280 0.0 2.0 0.00 0.00 0.00 88 1018.1
20260503150616 64 53 0.0 0.0 0.00 0.00 0.00 86 1018.2
20260503150110 64 53 0.0 0.0 0.00 0.00 0.00 86 1018.4
20260503140114 65 346 0.0 0.0 0.00 0.00 0.00 85 1018.9
20260503131108 66 58 1.0 5.0 0.00 0.00 0.00 85 1019.2
20260503130610 66 55 2.0 5.0 0.00 0.00 0.00 85 1019.2
20260503130522 66 25 1.0 5.0 0.00 0.00 0.00 85 1019.2